Location: Bakov nad Jizerou
(50.4784°N, 14.9394°E)
Time: 15:07:00
(UTC+00:00)

Cosmos 1536 Rocket - Pass Details

Date: 26 October 2021
Orbit: 605 x 632 km, 82.5° (Epoch: 05 December)

Event Time Altitude Azimuth Distance (km) Brightness Sun altitude
Rises 05:04:04 0° 208° (SSW) 2,886 6.8 -6.5°
Reaches altitude 10° 05:06:24 10° 215° (SW) 1,981 5.9 -6.2°
Maximum altitude 05:10:33 41° 286° (WNW) 895 3.9 -5.5°
Drops below altitude 10° 05:14:43 10° 358° (N) 1,980 6.0 -4.9°
Sets 05:17:03 0° 5° (N) 2,886 6.9 -4.5°
